星链-5038 (STARLINK-5038 )

导读

STARLINK-5038是美国于2023年5月10日发射的Starlink星链卫星,属于SpaceX公司低轨互联网星座组网卫星,该星座旨在为全球提供高速低延迟互联网覆盖。作为星链批量发射卫星之一,它承担着补充星座网络容量、完善全球覆盖的任务,也持续引发对太空轨道资源争夺和天文观测影响的讨论。

基本信息
目录编号:
56472
目录名称:
STARLINK-5038
国际标识:
2023-064AA
轨道中心:
EARTH
卫星名称:
星链-5038
卫星全名:
星链-5038 (STARLINK-5038 )
卫星状态:
在轨 (已飞行1132 天)
发射日期:
2023-05-10 UTC
国别 :
美国 (US)
星等 :
--
轨道信息
数据来源 国际轨道数据 AOE轨道数据
星历时间 2026-06-15T06:17:55+0800
9小时前
查看轨道信息
2026-06-15T03:00:00+0800
12小时前
查看轨道信息
半长轴 6950.194km 6950.181km
偏心率 0.0003325 0.0003662
轨道倾角 69.999° 69.998°
近地点辐角 268.848° 279.387°
升交点赤经 239.326° 239.672°
平近点角 91.230° 59.542°
近地点 569.746km 569.498km
远地点 574.368km 574.59km
周期 96.107分钟 96.107分钟
每日圈数 14.983299 14.983341
详细信息
固有亮度:
5
最大亮度:
2.5
卫星平台:
Starlink v1.5
覆盖范围:
全球
运营商:
太空探索技术公司
运营商所在国:
美国
制造商(研发单位):
太空探索技术公司
制造商所在国:
美国
使用方式:
暂无
卫星简介
星链(Starlink)计划是由太空探索技术公司(SpaceX)提出的一个巨型低轨卫星互联网星座项目,计划在2019年至2024年间在太空搭建由约1.2万颗卫星组成的“星链”网络,其中1584颗将部署在地球上空550千米处的近地轨道,并从2020年开始工作。该卫星仍在工作。
2D轨道图
3D轨道图
轨道高度分析图
轨道倾角分析图
轨道综合分析图
查看轨道综合分析图